Tracking 28520 objects as of 1-Mar-2024
HD Live streaming from Space Station
objects crossing your sky now

STARLINK-5289

Track STARLINK-5289 now!
10-day predictions
STARLINK-5289 is classified as:


NORAD ID: 55278
Int'l Code: 2023-010K
Perigee: 577.1 km
Apogee: 581.3 km
Inclination: 70.0 °
Period: 96.1 minutes
Semi major axis: 6950 km
RCS: Unknown
Launch date: January 19, 2023
Source: United States (US)
Launch site: AIR FORCE WESTERN TEST RANGE (AFWTR)
Your satellite tracking list
Your tracking list is empty




NASA's NSSDC Master Catalog

Two Line Element Set (TLE):
1 55278U 23010K   24060.56344333  .00000993  00000-0  90994-4 0  9992
2 55278  69.9987 107.9900 0003060 272.9753  87.1056 14.98327839 62062
Source of the keplerian elements: AFSPC